星链-5249 (STARLINK-5249 )

导读 | 豆包AI

STARLINK-5249是美国SpaceX公司星链星座中的一颗卫星,于2022年10月28日发射。作为星链互联网星座组网卫星,它属于第二代批次,运行在近地轨道,依托相控阵通信技术与氪离子推进系统,为全球偏远地区提供低延迟高速互联网接入服务。Starlink星链计划计划部署数万颗卫星,该星已在轨稳定运行超3年,服务覆盖全球多数区域,助力全球宽带互联覆盖,SpaceX通过批量生产发射不断完善星座规模。

基本信息
目录编号:
54205
目录名称:
STARLINK-5249
国际标识:
2022-141BA
轨道中心:
EARTH
卫星名称:
星链-5249
卫星全名:
星链-5249 (STARLINK-5249 )
卫星状态:
在轨 (已飞行1280 天)
发射日期:
2022-10-28 UTC
国别 :
美国 (US)
星等 :
--
轨道信息
数据来源 国际轨道数据 AOE轨道数据
星历时间 2026-04-30T11:55:18+0800
11小时前
查看轨道信息
2026-04-26T05:00:00+0800
4天前
查看轨道信息
半长轴 6917.911km 6917.851km
偏心率 0.0001356 0.0001219
轨道倾角 53.217° 53.216°
近地点辐角 73.439° 76.246°
升交点赤经 122.691° 141.946°
平近点角 286.676° 17.336°
近地点 538.835km 538.87km
远地点 540.713km 540.558km
周期 95.438分钟 95.437分钟
每日圈数 15.088303 15.088499
详细信息
固有亮度:
5
最大亮度:
2.5
卫星平台:
Starlink v1.5
覆盖范围:
全球
运营商:
太空探索技术公司
运营商所在国:
美国
制造商(研发单位):
太空探索技术公司
制造商所在国:
美国
使用方式:
暂无
卫星简介
星链(Starlink)计划是由太空探索技术公司(SpaceX)提出的一个巨型低轨卫星互联网星座项目,计划在2019年至2024年间在太空搭建由约1.2万颗卫星组成的“星链”网络,其中1584颗将部署在地球上空550千米处的近地轨道,并从2020年开始工作。该卫星仍在工作。
2D轨道图
3D轨道图
轨道高度分析图
轨道倾角分析图
轨道综合分析图
查看轨道综合分析图